TimeEDT,TemperatureF,Dew PointF,Humidity,Sea Level PressureIn,VisibilityMPH,Wind Direction,Wind SpeedMPH,Gust SpeedMPH,PrecipitationIn,Events,Conditions,WindDirDegrees,DateUTC
12:53 AM,54.0,52.0,93,29.95,10.0,Calm,Calm,-,N/A,,Clear,0,2013-09-25 04:53:00
1:53 AM,54.0,51.1,90,29.94,10.0,Calm,Calm,-,N/A,,Clear,0,2013-09-25 05:53:00
2:53 AM,55.0,51.1,86,29.92,10.0,Calm,Calm,-,N/A,,Clear,0,2013-09-25 06:53:00
3:53 AM,55.0,52.0,89,29.91,10.0,Calm,Calm,-,N/A,,Clear,0,2013-09-25 07:53:00
4:53 AM,55.9,51.1,84,29.90,10.0,NE,4.6,-,N/A,,Clear,50,2013-09-25 08:53:00
5:53 AM,53.1,50.0,89,29.91,10.0,Calm,Calm,-,N/A,,Clear,0,2013-09-25 09:53:00
6:53 AM,55.9,52.0,87,29.93,10.0,Calm,Calm,-,N/A,,Mostly Cloudy,0,2013-09-25 10:53:00
7:53 AM,52.0,50.0,93,29.94,9.0,Calm,Calm,-,N/A,,Clear,0,2013-09-25 11:53:00
8:53 AM,57.9,51.1,78,29.94,10.0,Calm,Calm,-,N/A,,Clear,0,2013-09-25 12:53:00
9:53 AM,61.0,52.0,72,29.95,10.0,NNE,3.5,-,N/A,,Partly Cloudy,20,2013-09-25 13:53:00
10:53 AM,64.9,53.1,65,29.95,10.0,East,5.8,-,N/A,,Clear,80,2013-09-25 14:53:00
11:53 AM,66.0,54.0,65,29.95,10.0,ENE,3.5,-,N/A,,Clear,60,2013-09-25 15:53:00
12:53 PM,68.0,52.0,56,29.95,10.0,East,6.9,-,N/A,,Clear,100,2013-09-25 16:53:00
1:53 PM,70.0,52.0,53,29.94,10.0,ENE,5.8,-,N/A,,Clear,70,2013-09-25 17:53:00
2:53 PM,72.0,53.1,51,29.91,10.0,ENE,8.1,-,N/A,,Clear,60,2013-09-25 18:53:00
3:53 PM,72.0,52.0,49,29.90,10.0,East,4.6,-,N/A,,Clear,90,2013-09-25 19:53:00
4:53 PM,73.9,52.0,46,29.90,10.0,North,8.1,-,N/A,,Clear,10,2013-09-25 20:53:00
5:53 PM,73.9,53.1,48,29.89,10.0,NNE,3.5,-,N/A,,Clear,30,2013-09-25 21:53:00
6:53 PM,69.1,51.1,53,29.90,10.0,East,4.6,-,N/A,,Clear,80,2013-09-25 22:53:00
7:53 PM,59.0,52.0,78,29.91,10.0,Calm,Calm,-,N/A,,Clear,0,2013-09-25 23:53:00
8:53 PM,55.0,51.1,86,29.92,10.0,Calm,Calm,-,0.00,,Clear,0,2013-09-26 00:53:00
9:53 PM,53.1,50.0,89,29.93,9.0,Calm,Calm,-,N/A,,Clear,0,2013-09-26 01:53:00
10:53 PM,51.1,48.9,92,29.95,7.0,Calm,Calm,-,N/A,,Clear,0,2013-09-26 02:53:00
11:53 PM,50.0,48.0,93,29.95,8.0,Calm,Calm,-,N/A,,Clear,0,2013-09-26 03:53:00